#timestamp,LO_Frequency,Hit,StdDev 
1709755215.9,286047006.3,P
1709755235.7,286047008.9,Y
1709755255.5,286047005.5,P
1709755275.4,286047007.4,P
1709755295.2,286047005.9,P
1709755315.1,286047003.1,N
1709755316.0,286047003.1,N
1709755335.8,286047004.9,Y
1709755355.7,286047004.3,P
1709755375.5,286047003.6,P
1709755395.3,286047004.9,P
1709755415.2,286047003.2,Y
1709755435.0,286047000.4,P
1709755435.9,286047000.4,N
1709755455.8,286047001.8,N
1709755475.6,286047002.8,N
1709755495.4,286047000.0,N
1709755515.3,286047000.2,N
1709755535.1,286046999.0,N
1709755555.8,286047000.9,N
1709755575.7,286046999.7,N
1709755595.5,286047002.2,N
1709755615.4,286047001.5,N
1709755635.2,286047002.1,N
1709755655.0,286047004.3,Y
1709755655.9,286047004.3,P
1709755675.8,286047000.9,N
1709755695.6,286047000.5,N
1709755715.4,286047002.3,N
1709755735.3,286047001.5,N
1709755755.1,286047001.8,N
1709755775.9,286047003.0,N
1709755795.7,286047005.6,Y
1709755815.5,286047005.8,P
1709755835.4,286047005.3,N
1709755855.2,286047006.8,P
1709755875.0,286047007.7,Y
1709755876.0,286047007.7,P
1709755895.8,286047003.9,N
1709755915.6,286047005.7,P
1709755935.5,286047007.5,Y
1709755955.3,286046999.8,P
1709755975.1,286047002.1,N
1709755995.9,286047001.8,N
1709756015.7,286047006.0,N
1709756035.6,286047005.6,N
1709756055.4,286047001.3,N
1709756075.2,286047004.7,N
1709756095.1,286047006.2,N
1709756096.0,286047006.2,N
1709756115.8,286047010.4,Y
1709756135.6,286047001.5,P
1709756155.5,286047001.7,N
1709756175.3,286047003.6,P
1709756195.2,286047003.9,Y
1709756215.9,286047002.6,P
1709756235.7,286047000.1,N
1709756255.6,286047002.8,N
1709756275.4,286047002.0,N
1709756295.3,286047001.8,N
1709756315.1,286047003.4,Y
1709756316.0,286047003.4,P
1709756335.8,286047004.2,P
1709756355.7,286047002.9,P
1709756375.5,286047007.5,Y
1709756395.3,286047001.3,P
1709756415.2,286047002.6,N
1709756435.0,286047003.5,P
1709756435.9,286047003.5,Y
1709756455.8,286047002.6,P
1709756475.6,286047002.3,P
1709756495.4,286047002.1,P
1709756515.3,286047003.7,Y
1709756535.1,286047003.6,P
1709756555.9,286047004.3,P
1709756575.7,286047001.4,N
1709756595.5,286047001.7,N
1709756615.4,286047002.8,N
1709756635.2,286047001.0,N
1709756655.0,286047000.0,N
1709756655.9,286047000.0,N
1709756675.8,286047000.9,N
1709756695.6,286046998.1,N
1709756715.5,286046997.4,N
1709756735.3,286046999.5,N
1709756755.1,286046998.4,N
1709756775.9,286046998.5,N
1709756795.7,286046997.3,N
1709756815.5,286046995.0,N
1709756835.4,286046995.4,N
1709756855.2,286046993.8,N
1709756875.1,286046995.7,N
1709756876.0,286046995.7,N
1709756895.8,286046992.0,N
1709756915.6,286046995.1,N
1709756935.5,286046997.6,N
1709756955.3,286046998.0,N
1709756975.1,286046996.5,N
1709756995.9,286046996.1,N
1709757015.7,286046996.2,N
1709757035.6,286046993.7,N
1709757055.4,286046991.8,N
1709757075.2,286046992.9,N
1709757095.1,286046994.9,N
1709757096.0,286046994.9,N
1709757115.8,286046993.7,N
1709757135.6,286046995.7,N
1709757155.5,286046994.9,N
1709757175.3,286046995.4,N
1709757195.2,286046998.2,N
1709757215.9,286047001.5,N
1709757235.7,286047004.1,N
1709757255.6,286047003.6,N
1709757275.4,286047003.0,N
1709757295.2,286047003.9,N
1709757315.1,286047005.6,N
1709757316.0,286047005.6,N
1709757335.8,286047006.4,N
1709757355.7,286047008.8,N
1709757375.5,286047007.8,N
1709757395.3,286047010.7,N
1709757415.2,286047009.9,N
1709757435.0,286047009.3,N
1709757435.9,286047009.3,N
1709757455.7,286047012.9,N
1709757475.6,286047016.9,N
1709757495.4,286047019.7,N
1709757515.3,286047023.3,Y
1709757535.1,286047023.5,P
1709757536.0,286047023.5,N
1709757555.9,286047022.5,N
1709757575.7,286047024.9,N
1709757595.5,286047026.1,Y
1709757615.4,286047006.6,P
1709757635.2,286047006.3,N
1709757655.1,286047008.5,N
1709757656.0,286047008.5,N
1709757675.8,286047008.4,N
1709757695.7,286047008.6,N
1709757715.5,286047009.1,N
1709757735.3,286047010.3,N
1709757755.2,286047010.7,N
1709757775.0,286047012.1,Y
1709757775.9,286047012.1,P
1709757795.8,286047001.7,N
1709757815.6,286047004.1,N
1709757835.5,286047004.4,N
1709757855.3,286046999.8,N
1709757875.1,286047003.9,N
1709757895.9,286047002.6,N
1709757915.7,286047001.4,N
1709757935.6,286047001.4,N
1709757955.4,286047004.0,N
1709757975.2,286047003.0,N
1709757995.1,286047007.6,N
1709757996.0,286047007.6,N
1709758015.8,286047006.0,N
1709758035.6,286047005.6,N
1709758055.5,286047004.1,N
1709758075.3,286047003.0,N
1709758095.2,286047005.3,N
1709758115.9,286047005.2,N
1709758135.7,286047009.2,Y
1709758155.6,286047004.8,P
1709758175.4,286047007.3,P
1709758195.3,286047005.7,P
1709758215.1,286047003.5,Y
1709758216.0,286047003.5,P
1709758235.8,286046996.5,P
1709758255.7,286046999.6,N
1709758275.5,286046997.8,N
1709758295.3,286046997.9,N
1709758315.2,286046995.6,N
1709758335.0,286046995.1,N
1709758335.9,286046995.1,N
1709758355.8,286046993.9,N
1709758375.6,286046991.9,N
1709758395.4,286046991.5,N
1709758415.3,286046988.1,N
1709758435.1,286046988.3,N
1709758455.8,286046983.7,Y
1709758475.7,286046986.1,P
1709758495.5,286046987.5,N
1709758515.4,286046990.9,N
1709758535.2,286046989.8,N
1709758555.0,286046992.4,N
1709758555.9,286046992.4,N
1709758575.8,286046991.1,N
1709758595.6,286046988.5,Y
1709758615.4,286046999.6,P
1709758635.3,286046998.3,N
1709758655.1,286046999.6,N
1709758675.9,286046997.2,N
1709758695.7,286046999.3,N
1709758715.5,286046999.3,N
1709758735.4,286046999.0,N
1709758755.2,286047000.5,N
1709758775.1,286047001.3,N
1709758776.0,286047001.3,N
1709758795.8,286047005.4,N
